User: anonymous   Login
Location: Unspecified
(0.0000°N, 0.0000°E)
Time: 05:24:45
(UTC+00:00)
Language:

CORVUS BC1 - Orbit

View from above orbital plane
View from above orbital plane
View from above satellite
View from above satellite

Ground track
Ground track

The orbit is defined by the following mean orbital elements,

1 42847U          26145.40535904 +.00000000 +00000-0 +26086-3 0 00001
2 42847  97.4075 308.4460 0012369 160.7800 199.3897 15.06293122    04
Epoch (UTC): 25 May 2026 09:43:43
Eccentricity: 0.0012369
inclination: 97.4075°
perigee height: 539 km
apogee height: 556 km
right ascension of ascending node: 308.4460°
argument of perigee: 160.7800°
revolutions per day: 15.06293122
mean anomaly at epoch: 199.3897°

The dashed part of the orbit path shows where the satellite is in the earth's shadow,  

DLR